Weather History for KRIW - July, 2013

Change the Weather History Date:

Sunday, July 7, 2013

  Actual Average Record
Temperature  
Mean Temperature 73 °F 70 °F  
Max Temperature 92 °F 86 °F 94 °F (2007)
Min Temperature 54 °F 55 °F 40 °F (2010)
Degree Days  
Heating Degree Days 0 1  
Month to date heating degree days 0 7  
Since 1 June heating degree days 52 126  
Since 1 July heating degree days 0 7  
Cooling Degree Days 8 6  
Month to date cooling degree days 63 37  
Year to date cooling degree days 213 112  
Since 1 June cooling degree days 200 103  
Growing Degree Days 22 (Base 50)    
Moisture  
Dew Point 45 °F    
Average Humidity 51    
Maximum Humidity 86    
Minimum Humidity 15    
Precipitation  
Precipitation T in 0.04 in 0.40 in (2015)
Month to date precipitation 0.27 0.27  
Year to date precipitation 3.76 5.63  
Snow  
Snow 0.00 in - - ()
Month to date snowfall 0.0  
Since 1 June snowfall 0.0  
Since 1 July snowfall 0.0  
Snow Depth 0.00 in    
Sea Level Pressure  
Sea Level Pressure 29.89 in    
Wind  
Wind Speed 9 mph (West)    
Max Wind Speed 47 mph    
Max Gust Speed 56 mph    
Visibility 10 miles    
Events Rain    
T = Trace of Precipitation, MM = Missing Value Source: NWS Daily Summary

Daily Weather History Graph

Daily Weather History Graph

Search for Another Location

Airport or City:

Trip Planner

Search our weather history database for the weather conditions in past years. The results will help you decide how hot, cold, wet, or windy it might be!

Date:

Astronomy

Jul. 07, 2013 Rise Set
Actual Time 5:42 AM MDT 8:55 PM MDT
Civil Twilight 5:07 AM MDT 9:29 PM MDT
Nautical Twilight 4:22 AM MDT 10:14 PM MDT
Astronomical Twilight 3:27 AM MDT 11:09 PM MDT
Moon 5:22 AM MDT (7/7) 8:18 PM MDT (7/7)
Length of Visible Light 16h 22m
Length of Day
15h 13m
Waning Crescent, 0% of the Moon is Illuminated
Jul 7
Waning Crescent
Jul 8
New
Jul 15
First Quarter
Jul 22
Full
Jul 29
Last Quarter

Hourly Weather History & Observations

Time (MDT) Temp. Dew Point Humidity Pressure Visibility Wind Dir Wind Speed Gust Speed Precip Events Conditions
12:53 AM 61.0 °F 52.0 °F 72% 29.90 in 10.0 mi SSW 12.7 mph - 0.00 in Rain Light Rain
1:53 AM 59.0 °F 55.0 °F 87% 29.88 in 10.0 mi Calm Calm - 0.00 in   Overcast
2:53 AM 59.0 °F 53.1 °F 81% 29.89 in 10.0 mi SW 4.6 mph - 0.00 in   Clear
3:53 AM 57.9 °F 52.0 °F 81% 29.88 in 10.0 mi West 8.1 mph - N/A   Clear
4:53 AM 55.9 °F 51.1 °F 84% 29.89 in 10.0 mi WNW 6.9 mph - N/A   Clear
5:53 AM 54.0 °F 48.9 °F 83% 29.91 in 10.0 mi NW 9.2 mph - N/A   Clear
6:53 AM 57.0 °F 48.9 °F 74% 29.92 in 10.0 mi West 9.2 mph - N/A   Clear
7:53 AM 60.1 °F 48.9 °F 67% 29.94 in 10.0 mi West 5.8 mph - N/A   Clear
8:53 AM 64.9 °F 50.0 °F 58% 29.94 in 10.0 mi WNW 3.5 mph - N/A   Clear
9:53 AM 69.1 °F 50.0 °F 51% 29.93 in 10.0 mi SW 3.5 mph - N/A   Clear
10:53 AM 73.9 °F 48.0 °F 40% 29.93 in 10.0 mi Calm Calm - N/A   Clear
11:53 AM 78.1 °F 48.0 °F 35% 29.90 in 10.0 mi SSE 6.9 mph - N/A   Clear
12:53 PM 82.0 °F 46.9 °F 29% 29.87 in 10.0 mi ESE 8.1 mph - N/A   Clear
1:53 PM 84.0 °F 39.0 °F 20% 29.85 in 10.0 mi ESE 4.6 mph - N/A   Clear
2:53 PM 89.1 °F 39.9 °F 18% 29.80 in 10.0 mi Variable 6.9 mph - N/A   Clear
3:53 PM 88.0 °F 33.1 °F 14% 29.80 in 10.0 mi SSE 6.9 mph - N/A   Partly Cloudy
4:23 PM 80.6 °F 37.4 °F 21% 30.04 in 10.0 mi WNW 40.3 mph 56.4 mph 0.00 in Rain Light Rain
4:53 PM 80.1 °F 37.9 °F 22% 29.87 in 10.0 mi West 29.9 mph 38.0 mph 0.00 in   Scattered Clouds
5:53 PM 81.0 °F 39.0 °F 22% 29.85 in 10.0 mi West 15.0 mph - N/A   Clear
6:53 PM 82.9 °F 36.0 °F 19% 29.84 in 10.0 mi West 5.8 mph - N/A   Clear
7:53 PM 80.1 °F 39.9 °F 24% 29.84 in 10.0 mi NE 4.6 mph - N/A   Clear
8:53 PM 77.0 °F 42.1 °F 29% 29.86 in 10.0 mi Calm Calm - N/A   Clear
9:53 PM 73.9 °F 44.1 °F 34% 29.88 in 10.0 mi NNW 9.2 mph - N/A   Clear
10:53 PM 70.0 °F 44.1 °F 39% 29.90 in 10.0 mi NW 19.6 mph 25.3 mph N/A   Clear
11:53 PM 66.9 °F 46.0 °F 47% 29.90 in 10.0 mi NW 26.5 mph 33.4 mph N/A   Clear